503P/PanSTARRS (2011)

Japanese version
Home page
Updated on June 14, 2025

---------------------------------------------------------------------

* Profile

* Orbital Elements

                    Epoch = 2011 Dec. 25.0 TT
     T = 2011 Dec.  5.97624 TT        Peri. =  17.67755
     e = 0.4879289                    Node  = 268.77142 2000.0
     q = 1.8564146 AU                 Incl. =  10.63127
       a =  3.6253067 AU   n = 0.14278643   P =   6.90 years

* Magnitudes Graph

        m1 = 14.0 + 5 log d + 10.0 log r

---------------------------------------------------------------------

The orbital elements are printed on CBET 5554.
The magnitudes graphs are made with Comet for Windows.

---------------------------------------------------------------------

Copyright(C) Seiichi Yoshida (comet@aerith.net). All rights reserved.